Eizo Maru — JD2944 — position and weather

sailwx.info

Track history (hours):
 
Tides and Currents Weather Stations Pressure Air Temp Water Temp Dewpoint Dewpoint Depression Visibility Wind Speed Wind Dir Waves Ship Positions

Eizo Maru

Last reported at 2014-Oct-25 23:19 UTC. Time now 2014-Oct-26 00:18 UTC.
Position N 35°29' E 139°48'.

Length 80 m; draft 4.2 m.

Type: Tanker. MMSI: 431000976.

Date/timePositionNaut miles runAvg speedWind from/ knotsBaromVisibWave heightAir tempDewpointWater temp
2014-Oct-25 23:19N 35°29' E 139°48'0 0.0
2014-Oct-25 22:31N 35°29' E 139°48'0 0.0
2014-Oct-25 20:25N 35°29' E 139°48'0 0.1
2014-Oct-25 19:31N 35°29' E 139°48'0 0.1
2014-Oct-25 18:28N 35°29' E 139°48'0 0.0
2014-Oct-25 16:22N 35°29' E 139°48'0 0.0
2014-Oct-25 15:07N 35°29' E 139°48'0 0.0
2014-Oct-25 14:25N 35°29' E 139°48'0 0.0
2014-Oct-25 13:31N 35°29' E 139°48'0 0.0
2014-Oct-25 12:31N 35°29' E 139°48'0 0.0
2014-Oct-25 11:31N 35°29' E 139°48'0 0.0
2014-Oct-25 03:30N 35°29' E 139°48'1111.7
2014-Oct-25 02:33N 35°18' E 139°44'1211.8
2014-Oct-25 01:32N 35°06' E 139°45'8 0.2
2014-Oct-23 03:19N 35°15' E 139°46'912.1
2014-Oct-23 02:33N 35°23' E 139°42'8 1.9
2014-Oct-22 22:20N 35°31' E 139°46'2 2.5
2014-Oct-22 21:31N 35°29' E 139°48'0 0.0
2014-Oct-22 20:28N 35°29' E 139°48'0 0.0
2014-Oct-22 19:34N 35°29' E 139°48'0 0.0
2014-Oct-22 18:31N 35°29' E 139°48'0 0.0
2014-Oct-22 17:34N 35°29' E 139°48'0 0.0
2014-Oct-22 16:34N 35°29' E 139°48'0 0.0
2014-Oct-22 15:34N 35°29' E 139°48'0 0.0
2014-Oct-22 14:34N 35°29' E 139°48'1 1.4
2014-Oct-22 13:33N 35°28' E 139°47'1211.6
2014-Oct-22 12:33N 35°16' E 139°46'3 0.1
2014-Oct-21 04:33N 35°18' E 139°44'1010.6
2014-Oct-21 03:33N 35°28' E 139°47'1 0.3
2014-Oct-20 23:34N 35°29' E 139°48'1 0.5
2014-Oct-20 22:32N 35°29' E 139°48'0 0.0
2014-Oct-20 21:31N 35°29' E 139°48'0 0.0
2014-Oct-20 20:31N 35°29' E 139°48'0 0.0
2014-Oct-20 19:25N 35°29' E 139°48'0 0.0
2014-Oct-20 18:31N 35°29' E 139°48'0 0.0
2014-Oct-20 17:16N 35°29' E 139°48'0 0.0
2014-Oct-20 16:31N 35°29' E 139°48'0 0.0
2014-Oct-20 15:31N 35°29' E 139°48'0 0.0
2014-Oct-20 14:31N 35°29' E 139°48'9 9.1
2014-Oct-20 13:33N 35°20' E 139°45'1212.1
2014-Oct-20 12:33N 35°08' E 139°45'240 4.9
2014-Oct-18 11:18N 34°06' E 135°03'3 0.3
2014-Oct-17 23:20N 34°07' E 135°08'0 0.0
2014-Oct-17 19:17N 34°07' E 135°08'0 0.0
2014-Oct-17 18:29N 34°07' E 135°08'0 0.0
2014-Oct-17 17:05N 34°07' E 135°08'0 0.0
2014-Oct-17 16:08N 34°07' E 135°08'0 0.0
2014-Oct-17 14:29N 34°07' E 135°08'1 0.2
2014-Oct-17 07:33N 34°08' E 135°06'23810.4
2014-Oct-16 08:34N 35°20' E 139°42'1212.2
2014-Oct-16 07:33N 35°30' E 139°51'  
Track history (hours):
 
Tides and Currents Weather Stations Pressure Air Temp Water Temp Dewpoint Dewpoint Depression Visibility Wind Speed Wind Dir Waves Ship Positions

Eizo Maru

Last reported at 2014-Oct-25 23:19 UTC. Time now 2014-Oct-26 00:18 UTC.
Position N 35°29' E 139°48'.

Length 80 m; draft 4.2 m.

Type: Tanker. MMSI: 431000976.

Date/timePositionNaut miles runAvg speedWind from/ knotsBaromVisibWave heightAir tempDewpointWater temp
2014-Oct-25 23:19N 35°29' E 139°48'0 0.0
2014-Oct-25 22:31N 35°29' E 139°48'0 0.0
2014-Oct-25 20:25N 35°29' E 139°48'0 0.1
2014-Oct-25 19:31N 35°29' E 139°48'0 0.1
2014-Oct-25 18:28N 35°29' E 139°48'0 0.0
2014-Oct-25 16:22N 35°29' E 139°48'0 0.0
2014-Oct-25 15:07N 35°29' E 139°48'0 0.0
2014-Oct-25 14:25N 35°29' E 139°48'0 0.0
2014-Oct-25 13:31N 35°29' E 139°48'0 0.0
2014-Oct-25 12:31N 35°29' E 139°48'0 0.0
2014-Oct-25 11:31N 35°29' E 139°48'0 0.0
2014-Oct-25 03:30N 35°29' E 139°48'1111.7
2014-Oct-25 02:33N 35°18' E 139°44'1211.8
2014-Oct-25 01:32N 35°06' E 139°45'8 0.2
2014-Oct-23 03:19N 35°15' E 139°46'912.1
2014-Oct-23 02:33N 35°23' E 139°42'8 1.9
2014-Oct-22 22:20N 35°31' E 139°46'2 2.5
2014-Oct-22 21:31N 35°29' E 139°48'0 0.0
2014-Oct-22 20:28N 35°29' E 139°48'0 0.0
2014-Oct-22 19:34N 35°29' E 139°48'0 0.0
2014-Oct-22 18:31N 35°29' E 139°48'0 0.0
2014-Oct-22 17:34N 35°29' E 139°48'0 0.0
2014-Oct-22 16:34N 35°29' E 139°48'0 0.0
2014-Oct-22 15:34N 35°29' E 139°48'0 0.0
2014-Oct-22 14:34N 35°29' E 139°48'1 1.4
2014-Oct-22 13:33N 35°28' E 139°47'1211.6
2014-Oct-22 12:33N 35°16' E 139°46'3 0.1
2014-Oct-21 04:33N 35°18' E 139°44'1010.6
2014-Oct-21 03:33N 35°28' E 139°47'1 0.3
2014-Oct-20 23:34N 35°29' E 139°48'1 0.5
2014-Oct-20 22:32N 35°29' E 139°48'0 0.0
2014-Oct-20 21:31N 35°29' E 139°48'0 0.0
2014-Oct-20 20:31N 35°29' E 139°48'0 0.0
2014-Oct-20 19:25N 35°29' E 139°48'0 0.0
2014-Oct-20 18:31N 35°29' E 139°48'0 0.0
2014-Oct-20 17:16N 35°29' E 139°48'0 0.0
2014-Oct-20 16:31N 35°29' E 139°48'0 0.0
2014-Oct-20 15:31N 35°29' E 139°48'0 0.0
2014-Oct-20 14:31N 35°29' E 139°48'9 9.1
2014-Oct-20 13:33N 35°20' E 139°45'1212.1
2014-Oct-20 12:33N 35°08' E 139°45'240 4.9
2014-Oct-18 11:18N 34°06' E 135°03'3 0.3
2014-Oct-17 23:20N 34°07' E 135°08'0 0.0
2014-Oct-17 19:17N 34°07' E 135°08'0 0.0
2014-Oct-17 18:29N 34°07' E 135°08'0 0.0
2014-Oct-17 17:05N 34°07' E 135°08'0 0.0
2014-Oct-17 16:08N 34°07' E 135°08'0 0.0
2014-Oct-17 14:29N 34°07' E 135°08'1 0.2
2014-Oct-17 07:33N 34°08' E 135°06'23810.4
2014-Oct-16 08:34N 35°20' E 139°42'1212.2
2014-Oct-16 07:33N 35°30' E 139°51'  

Dump ship's entire track history